Location: Wingville
(42.9917°N, 90.4915°W)
Time: 08:05:23
(UTC+00:00)

YUBILEINY - Pass Details

Date: 01 July 2022
Orbit: 1478 x 1509 km, 82.5° (Epoch: 07 August)

Event Time Altitude Azimuth Distance (km) Brightness Sun altitude
Rises 07:46:48 0° 2° (N) 4,652 ? -19.9°
Reaches altitude 10° 07:53:27 10° 38° (NE) 3,657 ? -19.4°
Maximum altitude 07:55:21 11° 51° (NE) 3,594 ? -19.3°
Drops below altitude 10° 07:57:13 10° 64° (ENE) 3,649 ? -19.1°
Sets 08:03:46 0° 99° (E) 4,614 ? -18.6°
